TimePST,TemperatureF,Dew PointF,Humidity,Sea Level PressureIn,VisibilityMPH,Wind Direction,Wind SpeedMPH,Gust SpeedMPH,PrecipitationIn,Events,Conditions,WindDirDegrees,DateUTC
12:55 AM,41.0,37.9,89,30.14,10.0,NNE,5.8,-,N/A,,Clear,20,2014-01-19 08:55:00
1:55 AM,37.0,34.0,89,30.14,9.0,SE,3.5,-,N/A,,Clear,140,2014-01-19 09:55:00
2:55 AM,35.1,32.0,89,30.14,5.0,ESE,4.6,-,N/A,,Clear,120,2014-01-19 10:55:00
3:47 AM,32.0,30.0,92,30.15,2.5,WNW,3.5,-,N/A,,Partly Cloudy,300,2014-01-19 11:47:00
3:49 AM,32.0,30.2,93,30.15,1.2,WNW,3.5,-,N/A,,Scattered Clouds,300,2014-01-19 11:49:00
3:52 AM,33.8,30.2,87,30.15,0.8,NW,3.5,-,N/A,,Mist,310,2014-01-19 11:52:00
3:55 AM,32.0,30.0,92,30.15,0.8,WNW,4.6,-,N/A,,Mist,300,2014-01-19 11:55:00
4:00 AM,33.1,30.0,89,30.16,1.2,WNW,4.6,-,N/A,,Partly Cloudy,290,2014-01-19 12:00:00
4:02 AM,32.0,30.0,92,30.16,2.0,WNW,5.8,-,N/A,,Scattered Clouds,290,2014-01-19 12:02:00
4:06 AM,32.0,30.0,92,30.16,4.0,West,4.6,-,N/A,,Mostly Cloudy,280,2014-01-19 12:06:00
4:17 AM,35.1,32.0,89,30.16,5.0,Variable,3.5,-,N/A,,Mostly Cloudy,0,2014-01-19 12:17:00
4:53 AM,37.4,35.6,93,30.16,2.5,East,5.8,-,N/A,,Overcast,100,2014-01-19 12:53:00
4:55 AM,37.9,36.0,93,30.16,1.8,ESE,5.8,-,N/A,,Overcast,110,2014-01-19 12:55:00
4:58 AM,37.0,36.0,96,30.16,0.8,ESE,4.6,-,N/A,,Overcast,110,2014-01-19 12:58:00
5:39 AM,37.0,36.0,96,30.16,0.2,SE,4.6,-,N/A,Fog,Fog,140,2014-01-19 13:39:00
5:55 AM,37.0,36.0,96,30.16,0.2,SE,3.5,-,N/A,Fog,Fog,130,2014-01-19 13:55:00
6:55 AM,37.0,36.0,96,30.17,0.2,Calm,Calm,-,N/A,Fog,Fog,0,2014-01-19 14:55:00
7:55 AM,37.0,36.0,96,30.17,0.2,Calm,Calm,-,N/A,Fog,Fog,0,2014-01-19 15:55:00
8:05 AM,36.0,35.1,97,30.17,0.8,Variable,3.5,-,N/A,,Mist,0,2014-01-19 16:05:00
8:11 AM,37.9,35.1,89,30.17,1.5,ENE,3.5,-,N/A,,Scattered Clouds,70,2014-01-19 16:11:00
8:13 AM,37.9,35.1,89,30.17,3.0,Calm,Calm,-,N/A,,Partly Cloudy,0,2014-01-19 16:13:00
8:55 AM,37.9,36.0,93,30.17,5.0,East,4.6,-,N/A,,Clear,90,2014-01-19 16:55:00
9:55 AM,39.9,37.0,89,30.18,6.0,East,4.6,-,N/A,,Clear,80,2014-01-19 17:55:00
10:55 AM,43.0,37.0,80,30.19,9.0,North,3.5,-,N/A,,Clear,350,2014-01-19 18:55:00
11:55 AM,46.0,37.9,73,30.20,10.0,NNE,4.6,-,N/A,,Clear,20,2014-01-19 19:55:00
12:55 PM,48.0,37.0,66,30.19,10.0,ENE,4.6,-,N/A,,Clear,60,2014-01-19 20:55:00
1:55 PM,45.0,39.9,82,30.19,9.0,NNW,6.9,-,N/A,,Clear,340,2014-01-19 21:55:00
2:55 PM,45.0,39.0,80,30.18,10.0,North,5.8,-,N/A,,Clear,350,2014-01-19 22:55:00
3:55 PM,44.1,39.0,82,30.18,10.0,NNW,8.1,-,N/A,,Clear,340,2014-01-19 23:55:00
4:55 PM,42.1,39.0,89,30.19,10.0,NNW,6.9,-,N/A,,Clear,330,2014-01-20 00:55:00
5:53 PM,41.0,37.4,87,30.20,7.0,Calm,Calm,-,N/A,,Scattered Clouds,0,2014-01-20 01:53:00
5:55 PM,41.0,37.9,89,30.20,8.0,Calm,Calm,-,N/A,,Scattered Clouds,0,2014-01-20 01:55:00
6:02 PM,42.1,39.0,89,30.20,7.0,Calm,Calm,-,N/A,,Mostly Cloudy,0,2014-01-20 02:02:00
6:15 PM,41.0,37.9,89,30.20,1.5,Calm,Calm,-,N/A,,Overcast,0,2014-01-20 02:15:00
6:19 PM,39.9,37.0,89,30.20,0.8,Calm,Calm,-,N/A,,Overcast,0,2014-01-20 02:19:00
6:30 PM,39.9,37.9,93,30.20,0.2,NNW,3.5,-,N/A,Fog,Fog,330,2014-01-20 02:30:00
6:55 PM,39.0,37.9,96,30.21,1.8,Calm,Calm,-,N/A,,Scattered Clouds,0,2014-01-20 02:55:00
7:02 PM,37.0,36.0,96,30.21,6.0,Calm,Calm,-,N/A,,Partly Cloudy,0,2014-01-20 03:02:00
7:55 PM,39.0,36.0,89,30.21,10.0,East,3.5,-,N/A,,Clear,100,2014-01-20 03:55:00
8:55 PM,39.0,36.0,89,30.21,10.0,East,8.1,-,N/A,,Clear,90,2014-01-20 04:55:00
9:55 PM,39.0,35.1,86,30.21,10.0,East,8.1,-,N/A,,Clear,90,2014-01-20 05:55:00
10:55 PM,37.0,34.0,89,30.21,10.0,ENE,8.1,-,N/A,,Clear,60,2014-01-20 06:55:00
11:55 PM,37.0,34.0,89,30.22,10.0,East,5.8,-,N/A,,Clear,80,2014-01-20 07:55:00